Location: Blanot
(47.1713°N, 4.2340°E)
Time: 10:55:00
(UTC+00:00)

Meteor 1-28 Rocket - Pass Details

Date: 14 July 2020
Orbit: 505 x 522 km, 97.3° (Epoch: 05 August)

Event Time Altitude Azimuth Distance (km) Brightness Sun altitude
Exits shadow 02:31:15 - 164° (SSE) 2,098 5.9 -12.1°
Reaches altitude 10° 02:32:09 10° 164° (SSE) 1,718 5.5 -12.0°
Maximum altitude 02:35:51 84° 78° (ENE) 518 3.2 -11.6°
Drops below altitude 10° 02:39:37 10° 349° (N) 1,741 6.4 -11.2°
Sets 02:41:43 0° 349° (NNW) 2,635 7.4 -11.0°
